User: anonymous   Login
Location: Stigler
(35.2540°N, 95.1230°W)
Time: 14:22:05
(UTC-05:00)
Language:

Cosmos 1805 - Orbit

View from above orbital plane
View from above orbital plane
View from above satellite
View from above satellite

Ground track
Ground track

The orbit data is extracted from the following two-line orbital elements,

1 17191U 86097A   18144.33501529  .00000062  00000-0  18386-5 0  9994
2 17191  82.4772  53.3925 0004587 358.0267   2.0944 15.12134541715192
Epoch (UTC): 24 May 2018 08:02:25
Eccentricity: 0.0004587
inclination: 82.4772°
perigee height: 526 km
apogee height: 533 km
right ascension of ascending node: 53.3925°
argument of perigee: 358.0267°
revolutions per day: 15.12134541
mean anomaly at epoch: 2.0944°
orbit number at epoch: 71519

The dashed part of the orbit path shows where the satellite is in the earth's shadow,  

DLR